STARLINK-1051 (44756 NORAD) Tracking and Keplerian Element Data

This shows tracking and keplerian element data for the satellite.

Feedback or suggestion? Click here.




ElementValue
Catalog44756
NameSTARLINK-1051
Epoch Orbit161
Epoch Day93.91667824
Epoch Year2020
RAAN193.6446
Inclination53.0006
Eccentricity0.0001365
Argument of Perigee71.848
Mean Anonmoly42.6021
Mean Motion15.05620863
Decay Rate-0.00030187
L11 44756U 19074AV 20093.91667824 -.00030187 00000-0 -20592-2 0 9995
L22 44756 53.0006 193.6446 0001365 71.8480 42.6021 15.05620863 1617

Live tracking and technical data element details for STARLINK-1051 (NORAD 44756). STARLINK-1051 can be tracked NOW for your location showing map with azimuth and elevation plus other details from your city location.

Track the satellite on the map from your city or location and see movement details for azimuth, elevation, latitude, longitude, range, height, and movement on the map or in text.







IsCatalogInMostPopularTable: catalog: 44756, numindb: 45
Update: records affected: 1



GetName: 44756 STARLINK-1051

Hit Count: updated at: Sun, 05 Apr 2020 20:39:20 GMT